カタログに戻る

COSMOS 970 DEB

運用中LEO
NORAD 64966·DEBRIS·🇷🇺 Russia

打ち上げ Dec 21, 1977 から Baikonur Cosmodrome

Loading…

次のパス (今後24時間)

TLE

古いSource: Space-Track

元期: Sep 6, 2026, 09:49 UTC

1 64966U 77121CB  26249.40935563  .00000214  00000-0  28095-3 0  9991
2 64966  65.8131 290.7337 0102605 150.5271 210.1633 13.78373712642755

AllMySatでCOSMOS 970 DEBをリアルタイム追跡

Download on the App Store